SCP
0 0 0 0 0 0 0 0 0 0 0 0 0 0 0 0 0 0 0 0 0 0
0 0 0 0 0 0 0 0 0 0 0 0 0 0 0 0 0 0 0 0 0 0
0 0 0 0 0 0 0 0 0 0 0 0 0 0 0 0 0 0 0 0 0 0
0 0 0 0 0 0 0 0 0 0 0 0 0 0 0 0 0 0 0 0 0 0
0 0 0 0 0 0 0 0 0 0 0 0 0 0 0 0 0 0 0 0 0 0
0 0 0 0 0 0 0 0 0 0 0 0 0 0 0 0 0 0 0 0 0 0
0 0 0 0 0 0 0 0 0 0 0 0 0 0 0 0 0 0 0 0 0 0
0 0 0 0 0 0 0 0 0 0 0 0 0 0 0 0 0 0 0 0 0 0
0 0 0 0 0 0 0 0 0 0 0 0 0 0 0 0 0 0 0 0 0 0
0 0 0 0 0 0 0 0 0 0 0 0 0 0 0 0 0 0 0 0 0 0
0 0 0 0 0 0 0 0 0 0 0 0 0 0 0 0 0 0 0 0 0 0
0 0 0 0 0 0 0 0 0 0 0 0 0 0 0 0 0 0 0 0 0 0
0 0 0 0 0 0 0 0 0 0 0 0 0 0 0 0 0 0 0 0 0 0
0 0 0 0 0 0 0 0 0 0 0 0 0 0 0 0 0 0 0 0 0 0
Wind_Speed_500mb
41 54 48 57 52 50 56 47 45 38 35 34 33 32 35 35 34 38 36 39 36 32
26 29 30 28 31 36 40 42 37 37 37 34 32 32 34 32 34 34 35 31 28 25
20 22 23 24 28 33 37 38 31 29 30 30 31 27 26 26 27 24 23 20 17 18
20 23 25 22 24 27 29 29 30 28 27 23 22 20 18 18 17 14 14 15 18 14
15 16 17 19 18 21 21 24 25 24 20 21 19 15 15 15 13 13 13 11 7 4
8 5 5 7 9 12 13 15 15 14 15 17 14 15 11 11 9 6 4 4 3 3
6 7 8 6 8 9 13 14 15 15 13 11 13 13 11 8 6 5 6 6 5 4
11 10 9 11 9 11 13 13 13 13 14 13 12 12 11 11 10 9 7 6 4 5
13 14 13 11 12 14 13 13 13 13 14 16 18 19 15 11 8 8 7 6 5 5
13 14 15 16 15 14 15 16 17 19 19 18 16 14 12 10 7 7 4 4 5 6
14 15 15 16 18 19 20 20 18 17 16 15 15 14 11 8 5 2 1 4 7 9
14 14 15 17 17 17 16 16 15 16 16 14 11 8 6 3 2 5 7 9 11 13
14 15 15 15 15 15 16 16 15 13 11 7 5 2 2 4 6 9 11 14 16 17
19 17 16 15 16 17 17 16 14 11 8 6 6 4 6 10 12 14 16 18 20 20
Wind_Direction_500mb
220 232 238 242 235 234 245 250 256 254 252 258 259 265 268 268 273 278 278 277 275 277
222 223 227 219 224 229 239 239 241 254 252 252 257 262 264 262 268 267 273 270 266 266
212 223 232 237 236 238 240 242 235 232 253 256 264 255 257 259 259 256 256 250 234 247
234 232 229 229 235 236 240 243 241 239 250 256 252 243 245 249 243 232 224 235 237 227
233 237 234 236 232 237 246 246 240 241 230 245 242 236 220 224 230 211 200 190 201 225
213 215 233 202 209 218 216 227 226 220 233 221 221 220 198 189 182 189 188 178 172 122
160 155 139 160 179 193 204 203 198 192 183 165 162 155 152 149 156 148 130 120 106 85
140 143 151 170 171 164 153 150 149 147 145 145 140 130 121 121 122 118 111 102 87 63
142 144 152 160 154 152 147 146 144 145 136 137 137 130 127 126 129 125 112 95 67 25
151 152 148 146 142 141 138 136 139 139 139 141 137 130 121 115 102 82 63 32 2 344
148 143 144 139 137 138 140 140 140 140 137 132 129 127 121 120 123 125 310 316 326 332
157 155 152 151 146 146 144 141 145 143 141 138 137 127 116 102 15 335 330 324 322 321
166 166 171 169 167 162 158 153 149 148 151 150 163 164 338 329 309 314 317 315 318 324
181 190 192 187 185 180 175 172 172 183 187 196 222 261 313 320 321 317 314 312 310 307
Wind_Speed_850mb
41 54 48 57 52 50 56 47 45 38 35 34 33 32 35 35 34 38 36 39 36 32
26 29 30 28 31 36 40 42 37 37 37 34 32 32 34 32 34 34 35 31 28 25
20 22 23 24 28 33 37 38 31 29 30 30 31 27 26 26 27 24 23 20 17 18
20 23 25 22 24 27 29 29 30 28 27 23 22 20 18 18 17 14 14 15 18 14
15 16 17 19 18 21 21 24 25 24 20 21 19 15 15 15 13 13 13 11 7 4
8 5 5 7 9 12 13 15 15 14 15 17 14 15 11 11 9 6 4 4 3 3
6 7 8 6 8 9 13 14 15 15 13 11 13 13 11 8 6 5 6 6 5 4
11 10 9 11 9 11 13 13 13 13 14 13 12 12 11 11 10 9 7 6 4 5
13 14 13 11 12 14 13 13 13 13 14 16 18 19 15 11 8 8 7 6 5 5
13 14 15 16 15 14 15 16 17 19 19 18 16 14 12 10 7 7 4 4 5 6
14 15 15 16 18 19 20 20 18 17 16 15 15 14 11 8 5 2 1 4 7 9
14 14 15 17 17 17 16 16 15 16 16 14 11 8 6 3 2 5 7 9 11 13
14 15 15 15 15 15 16 16 15 13 11 7 5 2 2 4 6 9 11 14 16 17
19 17 16 15 16 17 17 16 14 11 8 6 6 4 6 10 12 14 16 18 20 20
Wind_Direction_850mb
220 232 238 242 235 234 245 250 256 254 252 258 259 265 268 268 273 278 278 277 275 277
222 223 227 219 224 229 239 239 241 254 252 252 257 262 264 262 268 267 273 270 266 266
212 223 232 237 236 238 240 242 235 232 253 256 264 255 257 259 259 256 256 250 234 247
234 232 229 229 235 236 240 243 241 239 250 256 252 243 245 249 243 232 224 235 237 227
233 237 234 236 232 237 246 246 240 241 230 245 242 236 220 224 230 211 200 190 201 225
213 215 233 202 209 218 216 227 226 220 233 221 221 220 198 189 182 189 188 178 172 122
160 155 139 160 179 193 204 203 198 192 183 165 162 155 152 149 156 148 130 120 106 85
140 143 151 170 171 164 153 150 149 147 145 145 140 130 121 121 122 118 111 102 87 63
142 144 152 160 154 152 147 146 144 145 136 137 137 130 127 126 129 125 112 95 67 25
151 152 148 146 142 141 138 136 139 139 139 141 137 130 121 115 102 82 63 32 2 344
148 143 144 139 137 138 140 140 140 140 137 132 129 127 121 120 123 125 310 316 326 332
157 155 152 151 146 146 144 141 145 143 141 138 137 127 116 102 15 335 330 324 322 321
166 166 171 169 167 162 158 153 149 148 151 150 163 164 338 329 309 314 317 315 318 324
181 190 192 187 185 180 175 172 172 183 187 196 222 261 313 320 321 317 314 312 310 307